Lid_Strength_Index
15 15 15 15 15 14 14 13 12 12 10 10 10 11 12 12 13 13 13 12 11 10 10 8 8 7 8 8 8 7 8 8 10 10 9 10 10 11 10 10 10 10 10
16 16 16 16 16 16 15 15 14 13 12 11 11 11 12 13 14 14 14 14 13 12 12 11 11 11 10 10 10 9 8 9 10 10 11 11 9 10 10 11 11 10 11
17 17 17 17 16 17 17 16 15 14 14 13 12 13 13 14 14 15 15 15 14 14 13 13 13 13 12 12 12 11 10 10 9 10 10 11 12 12 8 10 11 11 10
16 17 17 17 17 17 16 16 16 15 15 14 14 15 15 16 16 16 15 15 15 14 14 13 13 13 13 13 13 13 12 11 12 10 10 11 12 13 13 10 9 10 11
17 17 17 17 17 17 17 16 16 16 16 15 15 15 16 15 15 15 15 15 15 15 14 14 14 14 13 14 13 13 13 12 13 13 12 11 11 12 14 13 12 10 9
16 17 17 17 17 16 16 16 16 16 16 16 16 16 16 16 15 15 15 15 15 15 14 14 14 14 14 14 14 13 13 13 13 13 13 13 13 13 13 14 13 13 11
17 17 17 17 17 16 16 16 16 16 16 16 16 15 15 15 16 16 15 15 15 15 15 15 14 14 14 14 14 14 14 14 13 13 13 12 13 13 14 14 15 14 13
16 16 17 17 16 16 16 16 16 16 16 15 15 15 15 15 16 15 15 15 15 15 14 14 14 14 14 14 14 14 14 14 14 14 14 13 13 12 12 14 15 17 16
16 15 16 16 17 16 16 16 16 16 16 15 15 16 16 15 15 15 15 15 14 14 14 14 14 14 14 14 14 14 14 14 14 14 14 14 13 13 13 12 13 15 18
16 16 15 16 16 16 16 16 16 16 15 15 15 15 15 15 15 14 14 14 14 14 13 14 14 14 14 14 14 14 14 15 14 14 14 14 13 13 13 13 13 13 14
15 15 15 15 15 16 16 16 16 16 15 15 15 15 14 14 14 14 14 14 14 14 14 14 14 14 15 15 15 15 14 15 15 14 14 14 14 14 13 13 13 14 14
14 14 14 14 15 15 16 16 16 15 15 15 14 14 13 13 14 14 14 14 14 14 14 15 15 15 15 15 15 15 15 15 15 15 14 14 14 14 14 13 14 14 13
14 14 14 15 15 15 15 15 15 15 14 14 14 14 13 14 14 14 14 14 15 15 16 16 16 16 16 16 16 15 15 15 15 15 15 15 15 15 14 14 14 13 13
14 14 15 14 15 15 15 15 15 14 14 13 13 13 13 13 14 14 15 15 15 16 16 16 16 16 16 16 15 15 15 14 14 13 14 14 14 15 14 14 14 13 13
14 14 14 15 15 15 15 14 14 14 13 13 13 13 13 14 14 15 16 16 16 16 17 17 17 17 16 14 14 13 13 13 13 13 13 13 13 13 13 13 13 13 14
13 13 14 14 15 14 14 14 13 13 13 12 12 13 13 14 15 16 16 16 17 17 17 17 17 17 15 13 12 11 13 13 14 14 14 14 14 14 13 12 12 12 14
14 13 13 13 13 13 12 12 12 13 13 13 14 15 15 15 16 17 17 18 18 17 17 17 17 17 16 13 12 11 13 13 14 15 15 15 14 14 15 14 13 13 12
13 12 12 12 12 12 12 12 12 13 13 14 15 16 16 17 18 18 18 18 18 18 17 17 17 17 16 13 12 12 13 14 14 14 14 15 15 14 14 14 14 14 13
13 13 12 12 13 13 13 13 14 14 14 14 15 16 17 18 18 19 18 18 18 18 18 17 18 18 18 14 12 12 13 14 14 14 14 14 14 13 11 12 13 13 12
14 13 13 13 13 13 13 14 14 15 15 14 15 16 17 19 19 18 18 18 19 18 18 18 18 19 19 16 13 12 13 14 14 13 13 11 11 10 9 11 12 14 13
13 13 13 13 13 13 14 14 15 15 14 16 16 17 17 18 18 19 19 20 20 19 21 20 20 19 19 18 13 12 12 13 13 12 12 11 10 9 9 9 11 12 11
13 12 13 13 13 14 15 15 15 15 16 16 17 18 20 18 19 22 21 22 22 22 22 22 21 18 17 15 13 11 10 10 12 12 11 11 9 8 9 10 10 10 10
13 13 13 13 13 15 14 14 14 16 17 18 20 21 21 20 20 22 21 20 21 22 21 20 20 18 16 15 12 10 10 9 10 10 10 10 11 11 13 13 12 13 14
14 14 15 15 14 16 15 14 16 17 19 21 21 21 21 20 21 19 19 21 21 21 20 20 20 18 17 15 13 13 11 9 9 11 14 14 15 15 15 17 16 16 16
14 16 15 14 13 16 16 18 18 19 20 21 20 20 21 21 19 19 18 18 18 19 22 20 19 18 15 14 10 9 10 10 11 16 19 20 20 20 20 19 19 18 18
16 16 15 15 16 18 19 19 20 19 20 20 20 20 20 19 19 19 19 16 13 12 11 9 10 11 10 10 9 9 8 9 11 19 23 22 22 22 21 21 21 20 20